^^
Datos históricos de la estación: Murcia-Puente Tocinos
Diario Informe para Julio 9, 2019 Unidades:  Métrico    Inglés   Ambas
Diario Semanal Mensual Anual Configurable
  Máximo: Mínimo: Media:
Temperatura: 34.5 °C 22.7 °C 27.8 °C
Punto de rocio: 20.2 °C 7.6 °C 13.1 °C
Humedad: 84% 21% 45%
Velocidad viento: 23.3km/h 2.9km/h 9.1km/h
Racha viento: 35.2km/h - -
Viento- - SSW
Presión: 1011.5 hPa 1007.9 hPa -
Precipitación: 0.0 mm    
Historical Graphs
 
 
Tabla de datos para Julio 9, 2019
Hora Temperatura Punto de rocio Presión Viento Velocidad viento Racha viento Humedad Intensidad lluvia(por hora) Nubes
00:04 23.3 °C 20.2 °C 1009.6 hPa NNE 6.9 km/h 9.3 km/h 83% 0.0 mm CLR
00:09 23.2 °C 20.2 °C 1009.6 hPa NNE 6.9 km/h 7.4 km/h 83% 0.0 mm CLR
00:14 23.2 °C 20.2 °C 1009.6 hPa NNW 6.9 km/h 5.6 km/h 83% 0.0 mm CLR
00:19 23.2 °C 20.2 °C 1009.7 hPa NNW 2.9 km/h 5.6 km/h 83% 0.0 mm CLR
00:24 23.2 °C 19.9 °C 1009.7 hPa NNW 2.9 km/h 5.6 km/h 82% 0.0 mm CLR
00:29 23.2 °C 19.9 °C 1009.7 hPa NNW 3.9 km/h 6.4 km/h 82% 0.0 mm CLR
00:34 23.2 °C 19.9 °C 1009.7 hPa NNW 3.9 km/h 7.4 km/h 82% 0.0 mm CLR
00:39 23.2 °C 19.9 °C 1009.7 hPa NNW 4.7 km/h 6.4 km/h 82% 0.0 mm CLR
00:44 23.2 °C 19.9 °C 1009.7 hPa NW 4.7 km/h 9.3 km/h 82% 0.0 mm CLR
00:49 23.1 °C 19.8 °C 1009.7 hPa WNW 5.0 km/h 7.4 km/h 82% 0.0 mm CLR
00:54 23.1 °C 20.1 °C 1009.7 hPa WNW 5.0 km/h 5.6 km/h 83% 0.0 mm CLR
00:59 23.0 °C 19.9 °C 1009.7 hPa WNW 4.7 km/h 5.6 km/h 83% 0.0 mm CLR
01:04 23.0 °C 19.9 °C 1009.8 hPa WNW 4.7 km/h 5.6 km/h 83% 0.0 mm CLR
01:09 23.0 °C 20.2 °C 1009.8 hPa West 3.9 km/h 7.6 km/h 84% 0.0 mm CLR
01:14 22.9 °C 20.1 °C 1009.8 hPa West 3.9 km/h 7.4 km/h 84% 0.0 mm CLR
01:19 22.9 °C 20.1 °C 1009.7 hPa WNW 6.9 km/h 13.0 km/h 84% 0.0 mm CLR
01:24 22.9 °C 20.1 °C 1009.7 hPa WSW 6.9 km/h 9.3 km/h 84% 0.0 mm CLR
01:29 22.9 °C 20.1 °C 1009.7 hPa West 8.4 km/h 13.0 km/h 84% 0.0 mm CLR
01:34 22.9 °C 20.1 °C 1009.7 hPa WNW 8.4 km/h 9.3 km/h 84% 0.0 mm CLR
01:39 22.9 °C 20.1 °C 1009.7 hPa West 6.4 km/h 9.3 km/h 84% 0.0 mm CLR
01:44 23.0 °C 20.2 °C 1009.7 hPa West 6.4 km/h 7.4 km/h 84% 0.0 mm CLR
01:49 23.0 °C 20.2 °C 1009.4 hPa West 3.2 km/h 2.9 km/h 84% 0.0 mm CLR
01:54 23.0 °C 19.9 °C 1009.4 hPa WSW 3.2 km/h 5.6 km/h 83% 0.0 mm CLR
01:59 23.1 °C 20.1 °C 1009.4 hPa WSW 2.9 km/h   83% 0.0 mm CLR
02:04 23.1 °C 20.1 °C 1009.3 hPa WSW 2.9 km/h 7.6 km/h 83% 0.0 mm CLR
02:09 23.2 °C 19.9 °C 1009.3 hPa WSW 3.2 km/h 7.4 km/h 82% 0.0 mm CLR
02:14 23.2 °C 19.9 °C 1009.3 hPa West 3.2 km/h 8.4 km/h 82% 0.0 mm CLR
02:19 23.2 °C 19.9 °C 1009.4 hPa West 4.7 km/h 7.4 km/h 82% 0.0 mm CLR
02:24 23.2 °C 19.9 °C 1009.4 hPa West 4.7 km/h 5.6 km/h 82% 0.0 mm CLR
02:29 23.2 °C 20.2 °C 1009.4 hPa WSW 2.9 km/h 5.8 km/h 83% 0.0 mm CLR
02:34 23.2 °C 20.2 °C 1009.2 hPa WSW 2.9 km/h 8.7 km/h 83% 0.0 mm CLR
02:39 23.2 °C 20.2 °C 1009.2 hPa WSW 4.7 km/h 6.9 km/h 83% 0.0 mm CLR
02:44 23.2 °C 20.2 °C 1009.2 hPa SW 4.7 km/h 9.3 km/h 83% 0.0 mm CLR
02:49 23.2 °C 20.2 °C 1009.2 hPa SW 5.8 km/h 7.4 km/h 83% 0.0 mm CLR
02:54 23.2 °C 19.9 °C 1009.2 hPa South 5.8 km/h 9.5 km/h 82% 0.0 mm CLR
02:59 22.9 °C 19.7 °C 1009.2 hPa SSW 6.9 km/h 11.1 km/h 82% 0.0 mm CLR
03:04 22.7 °C 19.4 °C 1009.2 hPa South 6.9 km/h 9.3 km/h 82% 0.0 mm CLR
03:09 22.7 °C 19.7 °C 1009.2 hPa WSW 6.4 km/h 7.4 km/h 83% 0.0 mm CLR
03:14 22.8 °C 19.8 °C 1009.2 hPa WSW 6.4 km/h 7.4 km/h 83% 0.0 mm CLR
03:19 22.9 °C 19.8 °C 1009.1 hPa WSW 5.8 km/h 11.1 km/h 83% 0.0 mm CLR
03:24 23.0 °C 19.9 °C 1009.1 hPa WSW 5.8 km/h 9.3 km/h 83% 0.0 mm CLR
03:29 23.1 °C 19.8 °C 1009.1 hPa WSW 5.8 km/h 7.6 km/h 82% 0.0 mm CLR
03:34 23.1 °C 19.8 °C 1009.2 hPa WSW 5.8 km/h 9.3 km/h 82% 0.0 mm CLR
03:39 23.1 °C 19.8 °C 1009.2 hPa WSW 5.8 km/h 9.3 km/h 82% 0.0 mm CLR
03:44 23.1 °C 19.8 °C 1009.2 hPa West 5.8 km/h 7.4 km/h 82% 0.0 mm CLR
03:49 23.1 °C 19.8 °C 1009.3 hPa WSW 5.0 km/h 7.4 km/h 82% 0.0 mm CLR
03:54 23.0 °C 19.6 °C 1009.3 hPa WSW 5.0 km/h 9.3 km/h 81% 0.0 mm CLR
03:59 22.9 °C 19.4 °C 1009.3 hPa SW 4.7 km/h 7.4 km/h 81% 0.0 mm CLR
04:04 22.9 °C 19.4 °C 1009.3 hPa WSW 4.7 km/h 7.4 km/h 81% 0.0 mm CLR
04:09 23.0 °C 19.6 °C 1009.3 hPa West 3.9 km/h 7.4 km/h 81% 0.0 mm CLR
04:14 23.0 °C 19.2 °C 1009.3 hPa WSW 3.9 km/h 11.1 km/h 79% 0.0 mm CLR
04:19 23.1 °C 18.8 °C 1009.4 hPa SW 5.8 km/h 9.3 km/h 77% 0.0 mm CLR
04:24 23.2 °C 18.7 °C 1009.4 hPa West 5.8 km/h 7.4 km/h 76% 0.0 mm CLR
04:29 23.3 °C 18.4 °C 1009.4 hPa SW 5.8 km/h 11.1 km/h 74% 0.0 mm CLR
04:34 23.4 °C 18.3 °C 1009.3 hPa SSW 5.8 km/h 9.5 km/h 73% 0.0 mm CLR
04:39 23.5 °C 18.4 °C 1009.3 hPa SW 7.6 km/h 9.3 km/h 73% 0.0 mm CLR
04:44 23.6 °C 18.3 °C 1009.3 hPa SSW 7.6 km/h 14.8 km/h 72% 0.0 mm CLR
04:49 23.6 °C 18.1 °C 1009.3 hPa SW 8.7 km/h 13.0 km/h 71% 0.0 mm CLR
04:54 23.6 °C 18.1 °C 1009.3 hPa SW 8.7 km/h 11.1 km/h 71% 0.0 mm CLR
04:59 23.6 °C 17.8 °C 1009.3 hPa SW 8.4 km/h 11.1 km/h 70% 0.0 mm CLR
05:04 23.6 °C 17.6 °C 1009.3 hPa SW 8.4 km/h 12.2 km/h 69% 0.0 mm CLR
05:09 23.7 °C 16.7 °C 1009.3 hPa WSW 9.5 km/h 16.7 km/h 65% 0.0 mm CLR
05:14 23.8 °C 16.6 °C 1009.3 hPa WSW 9.5 km/h 13.7 km/h 64% 0.0 mm CLR
05:19 23.8 °C 16.3 °C 1009.3 hPa SW 10.0 km/h 13.0 km/h 63% 0.0 mm CLR
05:24 23.8 °C 16.1 °C 1009.3 hPa SSW 10.0 km/h 14.8 km/h 62% 0.0 mm CLR
05:29 23.9 °C 15.7 °C 1009.3 hPa SSW 8.7 km/h 14.8 km/h 60% 0.0 mm CLR
05:34 23.8 °C 15.6 °C 1009.3 hPa SW 8.7 km/h 11.1 km/h 60% 0.0 mm CLR
05:39 23.8 °C 15.3 °C 1009.3 hPa SW 7.6 km/h 11.1 km/h 59% 0.0 mm CLR
05:44 23.8 °C 15.1 °C 1009.3 hPa SW 7.6 km/h 13.0 km/h 58% 0.0 mm CLR
05:49 23.8 °C 14.5 °C 1009.4 hPa SW 8.4 km/h 12.2 km/h 56% 0.0 mm CLR
05:54 23.9 °C 14.6 °C 1009.4 hPa SSW 8.4 km/h 11.1 km/h 56% 0.0 mm CLR
05:59 23.9 °C 14.3 °C 1009.4 hPa SW 8.7 km/h 14.8 km/h 55% 0.0 mm CLR
06:04 23.9 °C 13.7 °C 1009.5 hPa SW 8.7 km/h 14.8 km/h 53% 0.0 mm CLR
06:09 24.0 °C 13.6 °C 1009.5 hPa South 10.3 km/h 16.7 km/h 52% 0.0 mm CLR
06:14 24.1 °C 13.3 °C 1009.5 hPa SSW 10.3 km/h 16.7 km/h 51% 0.0 mm CLR
06:19 24.0 °C 13.2 °C 1009.6 hPa South 10.0 km/h 13.0 km/h 51% 0.0 mm CLR
06:24 24.0 °C 13.2 °C 1009.6 hPa WSW 10.0 km/h 14.8 km/h 51% 0.0 mm CLR
06:29 24.0 °C 12.9 °C 1009.6 hPa South 10.0 km/h 18.5 km/h 50% 0.0 mm CLR
06:34 23.9 °C 12.8 °C 1009.7 hPa SSW 10.0 km/h 16.7 km/h 50% 0.0 mm CLR
06:39 23.9 °C 12.8 °C 1009.7 hPa South 10.3 km/h 14.8 km/h 50% 0.0 mm CLR
06:44 23.9 °C 12.8 °C 1009.7 hPa WSW 10.3 km/h 18.5 km/h 50% 0.0 mm CLR
06:49 23.9 °C 12.8 °C 1009.8 hPa SW 10.3 km/h 14.0 km/h 50% 0.0 mm CLR
06:54 23.8 °C 12.4 °C 1009.8 hPa SSW 10.3 km/h 14.0 km/h 49% 0.0 mm CLR
06:59 23.8 °C 12.4 °C 1009.8 hPa South 10.3 km/h 14.8 km/h 49% 0.0 mm CLR
07:04 23.8 °C 12.4 °C 1009.9 hPa SSW 10.3 km/h 13.0 km/h 49% 0.0 mm CLR
07:09 23.8 °C 12.1 °C 1009.9 hPa SSW 10.0 km/h 16.1 km/h 48% 0.0 mm CLR
07:14 23.9 °C 12.2 °C 1009.9 hPa SSW 10.0 km/h 14.8 km/h 48% 0.0 mm CLR
07:19 23.9 °C 12.2 °C 1010.1 hPa SSW 11.1 km/h 14.8 km/h 48% 0.0 mm CLR
07:24 24.0 °C 12.0 °C 1010.1 hPa SW 11.1 km/h 14.8 km/h 47% 0.0 mm CLR
07:29 24.1 °C 12.1 °C 1010.1 hPa SSW 9.5 km/h 11.1 km/h 47% 0.0 mm CLR
07:34 24.1 °C 12.1 °C 1010.1 hPa SW 9.5 km/h 10.3 km/h 47% 0.0 mm CLR
07:39 24.2 °C 12.2 °C 1010.1 hPa SW 7.6 km/h 7.6 km/h 47% 0.0 mm CLR
07:44 24.2 °C 12.5 °C 1010.1 hPa NNE 7.6 km/h 7.4 km/h 48% 0.0 mm CLR
07:49 24.2 °C 14.0 °C 1010.4 hPa NNE 5.0 km/h 7.4 km/h 53% 0.0 mm CLR
07:54 23.8 °C 13.9 °C 1010.4 hPa NNE 5.0 km/h 7.4 km/h 54% 0.0 mm CLR
07:59 23.6 °C 14.6 °C 1010.4 hPa NNE 4.7 km/h 7.4 km/h 57% 0.0 mm CLR
08:04 23.2 °C 14.5 °C 1010.6 hPa NNE 4.7 km/h 3.7 km/h 58% 0.0 mm CLR
08:09 23.2 °C 14.2 °C 1010.6 hPa NE 3.9 km/h 5.0 km/h 57% 0.0 mm CLR
08:14 23.3 °C 14.3 °C 1010.6 hPa East 3.9 km/h 7.4 km/h 57% 0.0 mm CLR
08:19 23.3 °C 14.3 °C 1010.7 hPa East 5.0 km/h 7.4 km/h 57% 0.0 mm CLR
08:24 23.4 °C 14.4 °C 1010.7 hPa SE 5.0 km/h 7.4 km/h 57% 0.0 mm CLR
08:29 23.7 °C 13.6 °C 1010.7 hPa South 5.0 km/h 9.3 km/h 53% 0.0 mm CLR
08:34 23.9 °C 12.6 °C 1010.8 hPa SW 5.0 km/h 13.0 km/h 49% 0.0 mm CLR
08:39 24.2 °C 12.8 °C 1010.8 hPa SW 7.6 km/h 9.3 km/h 49% 0.0 mm CLR
08:44 24.3 °C 12.6 °C 1010.8 hPa WSW 7.6 km/h 13.0 km/h 48% 0.0 mm CLR
08:49 24.5 °C 12.8 °C 1011.0 hPa WSW 6.9 km/h 9.3 km/h 48% 0.0 mm CLR
08:54 24.7 °C 12.9 °C 1011.0 hPa WNW 6.9 km/h 9.3 km/h 48% 0.0 mm CLR
08:59 24.8 °C 12.7 °C 1011.0 hPa WSW 5.8 km/h 9.3 km/h 47% 0.0 mm CLR
09:04 24.9 °C 12.8 °C 1011.1 hPa WSW 5.8 km/h 3.7 km/h 47% 0.0 mm CLR
09:09 25.2 °C 13.1 °C 1011.1 hPa West 3.9 km/h 9.3 km/h 47% 0.0 mm CLR
09:14 25.3 °C 12.8 °C 1011.1 hPa West 3.9 km/h 7.6 km/h 46% 0.0 mm CLR
09:19 25.6 °C 12.8 °C 1011.2 hPa WNW 5.0 km/h 11.1 km/h 45% 0.0 mm CLR
09:24 25.7 °C 12.6 °C 1011.2 hPa SW 5.0 km/h 8.4 km/h 44% 0.0 mm CLR
09:29 26.0 °C 12.4 °C 1011.2 hPa West 6.9 km/h 13.0 km/h 43% 0.0 mm CLR
09:34 26.2 °C 12.3 °C 1011.3 hPa WSW 6.9 km/h 13.0 km/h 42% 0.0 mm CLR
09:39 26.3 °C 12.4 °C 1011.3 hPa West 9.5 km/h 16.7 km/h 42% 0.0 mm CLR
09:44 26.5 °C 12.2 °C 1011.3 hPa WSW 9.5 km/h 14.8 km/h 41% 0.0 mm CLR
09:49 26.6 °C 12.3 °C 1011.2 hPa WSW 8.7 km/h 18.5 km/h 41% 0.0 mm CLR
09:54 26.7 °C 12.3 °C 1011.2 hPa West 8.7 km/h 16.7 km/h 41% 0.0 mm CLR
09:59 26.9 °C 11.8 °C 1011.2 hPa WSW 10.3 km/h 22.2 km/h 39% 0.0 mm CLR
10:04 27.0 °C 11.9 °C 1011.2 hPa West 10.3 km/h 22.0 km/h 39% 0.0 mm CLR
10:09 27.1 °C 11.9 °C 1011.2 hPa WSW 12.2 km/h 14.8 km/h 39% 0.0 mm CLR
10:14 27.3 °C 11.7 °C 1011.2 hPa SW 12.2 km/h 13.0 km/h 38% 0.0 mm CLR
10:19 27.4 °C 11.8 °C 1011.2 hPa WNW 10.3 km/h 14.8 km/h 38% 0.0 mm CLR
10:24 27.6 °C 12.0 °C 1011.2 hPa West 10.3 km/h 13.0 km/h 38% 0.0 mm CLR
10:29 27.8 °C 11.3 °C 1011.2 hPa West 8.4 km/h 20.4 km/h 36% 0.0 mm CLR
10:34 28.0 °C 11.1 °C 1011.1 hPa West 8.4 km/h 24.1 km/h 35% 0.0 mm CLR
10:39 28.2 °C 10.8 °C 1011.1 hPa West 12.2 km/h 22.2 km/h 34% 0.0 mm CLR
10:44 28.3 °C 10.9 °C 1011.1 hPa WSW 12.2 km/h 18.5 km/h 34% 0.0 mm CLR
10:49 28.6 °C 10.7 °C 1011.1 hPa WSW 11.1 km/h 18.0 km/h 33% 0.0 mm CLR
10:54 28.6 °C 10.7 °C 1011.1 hPa WSW 11.1 km/h 16.7 km/h 33% 0.0 mm CLR
10:59 28.6 °C 10.7 °C 1011.1 hPa West 14.0 km/h 25.1 km/h 33% 0.0 mm CLR
11:04 28.6 °C 10.3 °C 1010.9 hPa WNW 14.0 km/h 14.8 km/h 32% 0.0 mm CLR
11:09 28.7 °C 10.4 °C 1010.9 hPa West 13.7 km/h 22.2 km/h 32% 0.0 mm CLR
11:14 28.8 °C 10.4 °C 1010.9 hPa WSW 13.7 km/h 16.7 km/h 32% 0.0 mm CLR
11:19 28.8 °C 10.0 °C 1010.9 hPa West 13.0 km/h 16.7 km/h 31% 0.0 mm CLR
11:24 28.9 °C 10.1 °C 1010.9 hPa West 13.0 km/h 25.9 km/h 31% 0.0 mm CLR
11:29 29.2 °C 10.3 °C 1010.9 hPa West 11.1 km/h 13.0 km/h 31% 0.0 mm CLR
11:34 29.4 °C 10.0 °C 1010.9 hPa NW 11.1 km/h 20.4 km/h 30% 0.0 mm CLR
11:39 29.5 °C 10.1 °C 1010.9 hPa WNW 10.3 km/h 20.4 km/h 30% 0.0 mm CLR
11:44 29.4 °C 10.0 °C 1010.9 hPa West 10.3 km/h 14.8 km/h 30% 0.0 mm CLR
11:49 29.7 °C 9.8 °C 1010.7 hPa West 10.0 km/h 10.3 km/h 29% 0.0 mm CLR
11:54 29.8 °C 9.8 °C 1010.7 hPa WNW 10.0 km/h 20.4 km/h 29% 0.0 mm CLR
11:59 30.1 °C 9.6 °C 1010.7 hPa West 10.0 km/h 14.8 km/h 28% 0.0 mm CLR
12:04 30.2 °C 9.7 °C 1010.6 hPa WSW 10.0 km/h 20.4 km/h 28% 0.0 mm CLR
12:09 30.3 °C 9.2 °C 1010.6 hPa SW 8.4 km/h 13.0 km/h 27% 0.0 mm CLR
12:14 30.4 °C 9.3 °C 1010.6 hPa WSW 8.4 km/h 14.8 km/h 27% 0.0 mm CLR
12:19 30.3 °C 9.8 °C 1010.6 hPa West 9.5 km/h 14.8 km/h 28% 0.0 mm CLR
12:24 30.3 °C 9.8 °C 1010.6 hPa WSW 9.5 km/h 11.1 km/h 28% 0.0 mm CLR
12:29 30.5 °C 9.4 °C 1010.6 hPa SW 8.4 km/h 9.5 km/h 27% 0.0 mm CLR
12:34 30.6 °C 9.4 °C 1010.6 hPa South 8.4 km/h 13.7 km/h 27% 0.0 mm CLR
12:39 30.5 °C 8.8 °C 1010.6 hPa WSW 10.3 km/h 20.4 km/h 26% 0.0 mm CLR
12:44 30.7 °C 9.6 °C 1010.6 hPa WSW 10.3 km/h 20.4 km/h 27% 0.0 mm CLR
12:49 30.8 °C 9.1 °C 1010.4 hPa WSW 11.1 km/h 18.5 km/h 26% 0.0 mm CLR
12:54 30.8 °C 8.5 °C 1010.4 hPa South 11.1 km/h 18.5 km/h 25% 0.0 mm CLR
12:59 31.1 °C 8.7 °C 1010.4 hPa SW 9.5 km/h 13.0 km/h 25% 0.0 mm CLR
13:04 31.3 °C 8.3 °C 1010.3 hPa SSW 9.5 km/h 14.8 km/h 24% 0.0 mm CLR
13:09 31.3 °C 8.3 °C 1010.3 hPa SW 11.1 km/h 19.0 km/h 24% 0.0 mm CLR
13:14 31.2 °C 7.6 °C 1010.3 hPa West 11.1 km/h 13.0 km/h 23% 0.0 mm CLR
13:19 31.2 °C 7.6 °C 1010.3 hPa SSW 10.3 km/h 3.7 km/h 23% 0.0 mm CLR
13:24 31.4 °C 8.4 °C 1010.3 hPa SSW 10.3 km/h 13.0 km/h 24% 0.0 mm CLR
13:29 31.6 °C 8.6 °C 1010.3 hPa West 8.7 km/h 15.6 km/h 24% 0.0 mm CLR
13:34 31.7 °C 8.0 °C 1010.1 hPa SW 8.7 km/h 11.1 km/h 23% 0.0 mm CLR
13:39 31.9 °C 8.2 °C 1010.1 hPa SE 8.4 km/h 9.3 km/h 23% 0.0 mm CLR
13:44 32.1 °C 9.0 °C 1010.1 hPa SW 8.4 km/h 11.9 km/h 24% 0.0 mm CLR
13:49 32.1 °C 8.3 °C 1010.1 hPa SSW 7.6 km/h 11.1 km/h 23% 0.0 mm CLR
13:54 31.9 °C 8.8 °C 1010.1 hPa ESE 7.6 km/h 11.1 km/h 24% 0.0 mm CLR
13:59 31.9 °C 8.2 °C 1010.1 hPa SSW 7.6 km/h 10.0 km/h 23% 0.0 mm CLR
14:04 32.1 °C 8.3 °C 1009.9 hPa NW 7.6 km/h 16.7 km/h 23% 0.0 mm CLR
14:09 32.2 °C 8.4 °C 1009.9 hPa NE 7.6 km/h 11.1 km/h 23% 0.0 mm CLR
14:14 32.3 °C 8.5 °C 1009.9 hPa SW 7.6 km/h 13.0 km/h 23% 0.0 mm CLR
14:19 32.5 °C 8.7 °C 1009.7 hPa SSW 7.6 km/h 14.8 km/h 23% 0.0 mm CLR
14:24 32.6 °C 8.1 °C 1009.7 hPa West 7.6 km/h 7.4 km/h 22% 0.0 mm CLR
14:29 32.6 °C 8.8 °C 1009.7 hPa South 6.4 km/h 14.8 km/h 23% 0.0 mm CLR
14:34 32.6 °C 8.8 °C 1009.6 hPa WNW 6.4 km/h 13.0 km/h 23% 0.0 mm CLR
14:39 32.7 °C 8.8 °C 1009.6 hPa WSW 8.4 km/h 9.5 km/h 23% 0.0 mm CLR
14:44 32.8 °C 8.9 °C 1009.6 hPa SW 8.4 km/h 16.7 km/h 23% 0.0 mm CLR
14:49 32.8 °C 8.9 °C 1009.4 hPa SSW 8.7 km/h 11.1 km/h 23% 0.0 mm CLR
14:54 32.7 °C 8.8 °C 1009.4 hPa SSW 8.7 km/h 13.7 km/h 23% 0.0 mm CLR
14:59 32.6 °C 8.8 °C 1009.4 hPa South 8.7 km/h 14.8 km/h 23% 0.0 mm CLR
15:04 32.6 °C 8.8 °C 1009.2 hPa SSW 8.7 km/h 9.5 km/h 23% 0.0 mm CLR
15:09 32.8 °C 8.9 °C 1009.2 hPa SSW 8.4 km/h 18.5 km/h 23% 0.0 mm CLR
15:14 32.8 °C 8.9 °C 1009.2 hPa SE 8.4 km/h 14.8 km/h 23% 0.0 mm CLR
15:19 32.8 °C 8.3 °C 1009.0 hPa SE 10.3 km/h 16.7 km/h 22% 0.0 mm CLR
15:24 32.8 °C 8.3 °C 1009.0 hPa WSW 10.3 km/h 9.3 km/h 22% 0.0 mm CLR
15:29 32.9 °C 9.0 °C 1009.0 hPa ENE 8.4 km/h 7.4 km/h 23% 0.0 mm CLR
15:34 33.3 °C 8.7 °C 1008.9 hPa WNW 8.4 km/h 14.8 km/h 22% 0.0 mm CLR
15:39 33.3 °C 8.7 °C 1008.9 hPa WNW 6.9 km/h 13.0 km/h 22% 0.0 mm CLR
15:44 33.4 °C 8.8 °C 1008.9 hPa South 6.9 km/h 13.0 km/h 22% 0.0 mm CLR
15:49 33.6 °C 8.9 °C 1008.9 hPa West 7.6 km/h 11.1 km/h 22% 0.0 mm CLR
15:54 33.8 °C 9.1 °C 1008.9 hPa South 7.6 km/h 13.7 km/h 22% 0.0 mm CLR
15:59 33.6 °C 8.9 °C 1008.9 hPa SSE 7.6 km/h 14.8 km/h 22% 0.0 mm CLR
16:04 33.7 °C 9.1 °C 1008.7 hPa WSW 7.6 km/h 14.8 km/h 22% 0.0 mm CLR
16:09 33.8 °C 9.1 °C 1008.7 hPa NNE 5.8 km/h 8.7 km/h 22% 0.0 mm CLR
16:14 34.1 °C 9.4 °C 1008.7 hPa East 5.8 km/h 3.7 km/h 22% 0.0 mm CLR
16:19 34.4 °C 8.9 °C 1008.5 hPa NW 3.9 km/h 13.0 km/h 21% 0.0 mm CLR
16:24 34.5 °C 9.0 °C 1008.5 hPa SW 3.9 km/h 11.1 km/h 21% 0.0 mm CLR
16:29 34.4 °C 8.9 °C 1008.5 hPa ESE 5.8 km/h 13.0 km/h 21% 0.0 mm CLR
16:34 34.4 °C 8.9 °C 1008.5 hPa NW 5.8 km/h 7.4 km/h 21% 0.0 mm CLR
16:39 34.4 °C 8.9 °C 1008.5 hPa NNE 5.8 km/h 9.3 km/h 21% 0.0 mm CLR
16:44 34.1 °C 11.9 °C 1008.5 hPa ESE 5.8 km/h 20.4 km/h 26% 0.0 mm CLR
16:49 33.8 °C 11.6 °C 1008.3 hPa ESE 10.0 km/h 22.2 km/h 26% 0.0 mm CLR
16:54 33.7 °C 11.6 °C 1008.3 hPa ESE 10.0 km/h 29.6 km/h 26% 0.0 mm CLR
16:59 33.4 °C 11.8 °C 1008.3 hPa SE 18.3 km/h 27.8 km/h 27% 0.0 mm CLR
17:04 33.0 °C 12.1 °C 1008.3 hPa ESE 18.3 km/h 31.5 km/h 28% 0.0 mm CLR
17:09 32.7 °C 11.8 °C 1008.3 hPa SSE 20.9 km/h 33.3 km/h 28% 0.0 mm CLR
17:14 32.6 °C 12.3 °C 1008.3 hPa South 20.9 km/h 33.3 km/h 29% 0.0 mm CLR
17:19 32.5 °C 12.2 °C 1008.2 hPa SE 22.0 km/h 35.2 km/h 29% 0.0 mm CLR
17:24 32.5 °C 12.2 °C 1008.2 hPa SSE 22.0 km/h 33.3 km/h 29% 0.0 mm CLR
17:29 32.3 °C 12.0 °C 1008.2 hPa SE 23.3 km/h 33.5 km/h 29% 0.0 mm CLR
17:34 32.2 °C 11.9 °C 1008.0 hPa SE 23.3 km/h 29.6 km/h 29% 0.0 mm CLR
17:39 32.6 °C 12.3 °C 1008.0 hPa SE 21.7 km/h 35.2 km/h 29% 0.0 mm CLR
17:44 32.6 °C 12.3 °C 1008.0 hPa SE 21.7 km/h 29.1 km/h 29% 0.0 mm CLR
17:49 32.7 °C 12.3 °C 1007.9 hPa SE 20.1 km/h 25.9 km/h 29% 0.0 mm CLR
17:54 32.8 °C 11.9 °C 1007.9 hPa ESE 20.1 km/h 29.6 km/h 28% 0.0 mm CLR
17:59 32.7 °C 12.3 °C 1007.9 hPa ESE 19.0 km/h 33.3 km/h 29% 0.0 mm CLR
18:04 32.7 °C 12.3 °C 1007.9 hPa SSE 19.0 km/h 29.8 km/h 29% 0.0 mm CLR
18:09 32.5 °C 12.2 °C 1007.9 hPa SE 18.3 km/h 27.0 km/h 29% 0.0 mm CLR
18:14 32.3 °C 12.0 °C 1007.9 hPa ESE 18.3 km/h 32.3 km/h 29% 0.0 mm CLR
18:19 32.2 °C 12.4 °C 1008.2 hPa SE 19.8 km/h 24.1 km/h 30% 0.0 mm CLR
18:24 32.2 °C 12.4 °C 1008.2 hPa SE 19.8 km/h 33.3 km/h 30% 0.0 mm CLR
18:29 32.1 °C 12.3 °C 1008.2 hPa ESE 18.3 km/h 25.9 km/h 30% 0.0 mm CLR
18:34 32.1 °C 12.8 °C 1008.4 hPa ESE 18.3 km/h 29.6 km/h 31% 0.0 mm CLR
18:39 32.1 °C 12.8 °C 1008.4 hPa ESE 18.0 km/h 20.4 km/h 31% 0.0 mm CLR
18:44 32.2 °C 12.4 °C 1008.4 hPa SE 18.0 km/h 24.1 km/h 30% 0.0 mm CLR
18:49 31.9 °C 12.7 °C 1008.4 hPa SSE 15.6 km/h 27.8 km/h 31% 0.0 mm CLR
18:54 31.6 °C 12.4 °C 1008.4 hPa SE 15.6 km/h 35.2 km/h 31% 0.0 mm CLR
18:59 31.5 °C 12.8 °C 1008.4 hPa SSE 21.7 km/h 22.2 km/h 32% 0.0 mm CLR
19:04 31.7 °C 12.5 °C 1008.4 hPa ESE 21.7 km/h 24.1 km/h 31% 0.0 mm CLR
19:09 31.7 °C 12.5 °C 1008.4 hPa SE 16.1 km/h 31.5 km/h 31% 0.0 mm CLR
19:14 31.5 °C 12.3 °C 1008.4 hPa SSE 16.1 km/h 27.8 km/h 31% 0.0 mm CLR
19:19 31.5 °C 12.3 °C 1008.6 hPa ESE 17.2 km/h 27.8 km/h 31% 0.0 mm CLR
19:24 31.3 °C 12.2 °C 1008.6 hPa SE 17.2 km/h 18.5 km/h 31% 0.0 mm CLR
19:29 31.3 °C 12.2 °C 1008.6 hPa SE 17.2 km/h 22.2 km/h 31% 0.0 mm CLR
19:34 31.3 °C 12.2 °C 1008.8 hPa SE 17.2 km/h 27.0 km/h 31% 0.0 mm CLR
19:39 31.3 °C 12.2 °C 1008.8 hPa ESE 16.4 km/h 14.8 km/h 31% 0.0 mm CLR
19:44 31.1 °C 12.0 °C 1008.8 hPa SE 16.4 km/h 24.1 km/h 31% 0.0 mm CLR
19:49 31.0 °C 11.9 °C 1008.9 hPa South 16.4 km/h 25.9 km/h 31% 0.0 mm CLR
19:54 31.0 °C 11.9 °C 1008.9 hPa SE 16.4 km/h 27.8 km/h 31% 0.0 mm CLR
19:59 30.8 °C 11.7 °C 1008.9 hPa SE 16.4 km/h 22.2 km/h 31% 0.0 mm CLR
20:04 30.9 °C 12.3 °C 1009.0 hPa SSE 16.4 km/h 18.5 km/h 32% 0.0 mm CLR
20:09 30.9 °C 11.8 °C 1009.0 hPa ESE 11.9 km/h 18.5 km/h 31% 0.0 mm CLR
20:14 30.9 °C 11.8 °C 1009.0 hPa ESE 11.9 km/h 18.5 km/h 31% 0.0 mm CLR
20:19 30.8 °C 11.7 °C 1009.2 hPa ESE 13.0 km/h 20.4 km/h 31% 0.0 mm CLR
20:24 30.6 °C 12.0 °C 1009.2 hPa ESE 13.0 km/h 20.4 km/h 32% 0.0 mm CLR
20:29 30.4 °C 11.8 °C 1009.2 hPa SE 14.8 km/h 24.1 km/h 32% 0.0 mm CLR
20:34 30.3 °C 11.8 °C 1009.4 hPa SE 14.8 km/h 18.5 km/h 32% 0.0 mm CLR
20:39 30.3 °C 11.8 °C 1009.4 hPa SE 13.0 km/h 14.8 km/h 32% 0.0 mm CLR
20:44 30.2 °C 11.7 °C 1009.4 hPa SE 13.0 km/h 20.4 km/h 32% 0.0 mm CLR
20:49 30.2 °C 11.7 °C 1009.6 hPa SSE 11.1 km/h 16.7 km/h 32% 0.0 mm CLR
20:54 30.1 °C 11.6 °C 1009.6 hPa ESE 11.1 km/h 16.7 km/h 32% 0.0 mm CLR
20:59 29.9 °C 11.4 °C 1009.6 hPa ESE 10.0 km/h 9.3 km/h 32% 0.0 mm CLR
21:04 29.9 °C 11.4 °C 1009.8 hPa ESE 10.0 km/h 13.0 km/h 32% 0.0 mm CLR
21:09 29.8 °C 11.3 °C 1009.8 hPa SSE 8.4 km/h 10.0 km/h 32% 0.0 mm CLR
21:14 29.7 °C 11.2 °C 1009.8 hPa ESE 8.4 km/h 9.3 km/h 32% 0.0 mm CLR
21:19 29.6 °C 11.2 °C 1010.0 hPa SE 7.6 km/h 9.3 km/h 32% 0.0 mm CLR
21:24 29.6 °C 11.2 °C 1010.0 hPa ESE 7.6 km/h 7.6 km/h 32% 0.0 mm CLR
21:29 29.5 °C 11.1 °C 1010.0 hPa ESE 5.8 km/h 7.4 km/h 32% 0.0 mm CLR
21:34 29.4 °C 11.0 °C 1010.1 hPa ESE 5.8 km/h 9.3 km/h 32% 0.0 mm CLR
21:39 29.3 °C 10.9 °C 1010.1 hPa SE 5.0 km/h 11.1 km/h 32% 0.0 mm CLR
21:44 29.2 °C 11.3 °C 1010.1 hPa ESE 5.0 km/h 7.4 km/h 33% 0.0 mm CLR
21:49 29.2 °C 11.3 °C 1010.4 hPa SE 5.8 km/h 7.4 km/h 33% 0.0 mm CLR
21:54 29.2 °C 11.3 °C 1010.4 hPa ESE 5.8 km/h 9.3 km/h 33% 0.0 mm CLR
21:59 29.1 °C 10.7 °C 1010.4 hPa ESE 5.8 km/h 9.3 km/h 32% 0.0 mm CLR
22:04 29.1 °C 11.2 °C 1010.5 hPa ESE 5.8 km/h 9.3 km/h 33% 0.0 mm CLR
22:09 28.9 °C 11.0 °C 1010.5 hPa ESE 6.4 km/h 7.4 km/h 33% 0.0 mm CLR
22:14 28.9 °C 11.0 °C 1010.5 hPa East 6.4 km/h 5.6 km/h 33% 0.0 mm CLR
22:19 28.8 °C 10.9 °C 1010.7 hPa NE 4.7 km/h 5.8 km/h 33% 0.0 mm CLR
22:24 28.7 °C 11.3 °C 1010.7 hPa ENE 4.7 km/h 3.7 km/h 34% 0.0 mm CLR
22:29 28.6 °C 11.2 °C 1010.7 hPa ENE 3.2 km/h 5.6 km/h 34% 0.0 mm CLR
22:34 28.4 °C 11.0 °C 1011.0 hPa ESE 3.2 km/h 9.3 km/h 34% 0.0 mm CLR
22:39 28.3 °C 10.9 °C 1011.0 hPa ESE 5.8 km/h 7.4 km/h 34% 0.0 mm CLR
22:44 28.3 °C 10.9 °C 1011.0 hPa SE 5.8 km/h 7.4 km/h 34% 0.0 mm CLR
22:49 28.2 °C 11.3 °C 1011.2 hPa SSE 3.9 km/h 4.7 km/h 35% 0.0 mm CLR
22:54 28.2 °C 11.3 °C 1011.2 hPa ESE 3.9 km/h 11.1 km/h 35% 0.0 mm CLR
22:59 28.1 °C 11.2 °C 1011.2 hPa SE 5.0 km/h 7.4 km/h 35% 0.0 mm CLR
23:04 28.1 °C 11.2 °C 1011.4 hPa SSE 5.0 km/h 9.3 km/h 35% 0.0 mm CLR
23:09 27.9 °C 11.0 °C 1011.4 hPa SE 4.7 km/h 12.2 km/h 35% 0.0 mm CLR
23:14 27.8 °C 10.9 °C 1011.4 hPa East 4.7 km/h 9.3 km/h 35% 0.0 mm CLR
23:19 27.7 °C 11.3 °C 1011.5 hPa East 5.8 km/h 5.6 km/h 36% 0.0 mm CLR
23:24 27.6 °C 11.2 °C 1011.5 hPa ESE 5.8 km/h 9.3 km/h 36% 0.0 mm CLR
23:29 27.5 °C 11.1 °C 1011.5 hPa ESE 5.0 km/h 7.4 km/h 36% 0.0 mm CLR
23:34 27.4 °C 11.0 °C 1011.5 hPa ESE 5.0 km/h 7.4 km/h 36% 0.0 mm CLR
23:39 27.4 °C 11.0 °C 1011.5 hPa ESE 5.0 km/h 7.4 km/h 36% 0.0 mm CLR
23:44 27.4 °C 11.4 °C 1011.5 hPa ESE 5.0 km/h 4.7 km/h 37% 0.0 mm CLR
23:49 27.3 °C 10.9 °C 1011.4 hPa East 3.9 km/h 9.3 km/h 36% 0.0 mm CLR
23:54 27.2 °C 11.2 °C 1011.4 hPa ENE 3.9 km/h 7.4 km/h 37% 0.0 mm CLR
23:59 27.1 °C 11.6 °C 1011.4 hPa NNE 5.0 km/h 9.3 km/h 38% 0.0 mm CLR
Murcia-Puente Tocinos, España
Compliments of Weather Underground - 2.75 mb

La estación de MeteoMurcia.com, publica sus datos en los siguientes proyectos:

Weather Underground PWS IMURCIAP2 Meteoclimatic www.awekas.at

W3Counter
Web Analytics